Hourly Data Report for September 18, 2017

All times are specified in Local Standard Time (LST). Add 1 hour to adjust for Daylight Saving Time where and when it is observed.

RANKIN INLET A
NUNAVUT

62°48'38.000" N
92°06'53.000" W
32.30 m
2303405
71083
YRT

Download Data

Hourly Data (September 2017)
Hourly Data Report for September 18, 2017
Temp Definition
°C
Dew Point Temp Definition
°C
Rel Hum Definition
%
Wind Dir Definition
10's deg

Wind Spd Definition
km/h
Visibility Definition
km
Stn Press Definition
kPa
Hmdx Definition


Wind Chill Definition


Weather Definition


TIME
00:00 Legend Double Dagger 3.3 3.1 99 17 17 2.4 101.39     Fog
01:00 Legend Double Dagger 3.4 3.2 99 15 13 2.4 101.37     Fog
02:00 Legend Double Dagger 3.3 3.1 99 16 16 2.4 101.36     Fog
03:00 Legend Double Dagger 3.2 3.0 98 17 12 2.4 101.33     Fog
04:00 Legend Double Dagger 3.3 3.0 98 16 9 2.4 101.29     Fog
05:00 Legend Double Dagger 3.4 3.2 99 12 8 2.4 101.26     Fog
06:00 Legend Double Dagger 3.6 3.4 99 12 10 2.4 101.24     Fog
07:00 Legend Double Dagger 3.9 3.7 99 11 13 1.6 101.21     Drizzle,Fog
08:00 Legend Double Dagger 4.2 4.0 99 9 14 1.6 101.18     Fog
09:00 Legend Double Dagger 4.9 4.5 97 10 11 9.7 101.15     Fog
10:00 Legend Double Dagger 5.2 4.8 97 11 16 1.6 101.12     Fog
11:00 Legend Double Dagger 5.8 5.2 96 11 17 9.7 101.12     Fog
12:00 Legend Double Dagger 5.7 5.0 95 11 13 6.4 101.11     Fog
13:00 Legend Double Dagger 6.1 5.5 96 13 15 4.0 101.09     Fog
14:00 Legend Double Dagger 5.7 5.4 98 11 9 0.2 101.08     Fog
15:00 Legend Double Dagger 5.4 5.2 98 13 10 0.8 101.07     Fog
16:00 Legend Double Dagger 6.8 5.0 88 12 9 24.1 101.03     LegendNANA
17:00 Legend Double Dagger 6.2 5.1 92 12 7 24.1 101.00     LegendNANA
18:00 Legend Double Dagger 5.9 5.3 96 15 7 16.1 101.02     Mostly Cloudy
19:00 Legend Double Dagger 5.4 4.9 97 8 5 16.1 101.01     LegendNANA
20:00 Legend Double Dagger 5.6 5.0 96 13 10 16.1 101.02     LegendNANA
21:00 Legend Double Dagger 5.3 4.8 97 13 8 16.1 101.01     Cloudy
22:00 Legend Double Dagger 5.0 4.7 98 8 8 16.1 101.02     LegendNANA
23:00 Legend Double Dagger 5.0 4.8 99 36 1 0.8 101.02     Drizzle,Fog

Notes on Data Quality.

Legend

  • E = Estimated
  • M = Missing
  • NA = Not Available
  • ‡ = Partner data that is not subject to review by the National Climate Archives
Date modified: